sampling_time,wmo_synop_id,msc_id,stn_nam,stn_elev,lat,long,stn_typ,date_tm,rpt_typ,result_time,crnt_buoy_lat,crnt_buoy_lat_qa_summary,crnt_buoy_long,crnt_buoy_long_qa_summary,avg_air_temp_pst10mts,avg_air_temp_pst10mts_qa_summary,avg_sea_sfc_temp_pst10mts,avg_sea_sfc_temp_pst10mts_qa_summary,avg_batry_volt_pst10mts,avg_batry_volt_pst10mts_qa_summary,avg_solr_panl_crnt_pst10mts,avg_solr_panl_crnt_pst10mts_qa_summary,avg_wtr_lvl_snsr_volt_pst10mts,avg_wtr_lvl_snsr_volt_pst10mts_qa_summary,avg_wave_hgt_pst20mts,avg_wave_hgt_pst20mts_qa_summary,pk_wave_hgt_pst20mts,pk_wave_hgt_pst20mts_qa_summary,sig_wave_pd_pst20mts,sig_wave_pd_pst20mts_qa_summary,sig_wave_hgt_pst20mts,sig_wave_hgt_pst20mts_qa_summary,avg_max_wave_hgt_pst20mts,avg_max_wave_hgt_pst20mts_qa_summary,avg_max_wave_pd_pst20mts,avg_max_wave_pd_pst20mts_qa_summary,avg_wave_pd_pst20mts,avg_wave_pd_pst20mts_qa_summary,pk_wave_pd_pst20mts,pk_wave_pd_pst20mts_qa_summary,avg_stn_pres_pst10mts,avg_stn_pres_pst10mts_qa_summary,avg_wnd_spd_pst10mts,avg_wnd_spd_pst10mts_qa_summary,avg_wnd_dir_pst10mts,avg_wnd_dir_pst10mts_qa_summary,max_avg_wnd_spd_pst10mts,max_avg_wnd_spd_pst10mts_qa_summary,wnd_snsr_vert_disp,wnd_snsr_vert_disp_qa_summary,pres_tend_char_pst3hrs,pres_tend_char_pst3hrs_data_flag,pres_tend_amt_pst3hrs,pres_tend_amt_pst3hrs_data_flag,avg_mslp_pst10mts,avg_mslp_pst10mts_data_flag,avg_stn_pres_pst10mts_1,avg_stn_pres_pst10mts_1_qa_summary,avg_stn_pres_pst10mts_2,avg_stn_pres_pst10mts_2_qa_summary,avg_wnd_spd_pst10mts_1,avg_wnd_spd_pst10mts_1_qa_summary,avg_wnd_spd_pst10mts_2,avg_wnd_spd_pst10mts_2_qa_summary,avg_wnd_dir_pst10mts_1,avg_wnd_dir_pst10mts_1_qa_summary,avg_wnd_dir_pst10mts_2,avg_wnd_dir_pst10mts_2_qa_summary,max_avg_wnd_spd_pst10mts_1,max_avg_wnd_spd_pst10mts_1_qa_summary,max_avg_wnd_spd_pst10mts_2,max_avg_wnd_spd_pst10mts_2_qa_summary
2023-10-15T00:00:00Z,44489,9302001,WEST CHEDABUCTO BAY,0,45.48687,-61.14100000000001,18,2023-10-15T00:00:00.000Z,108,2023-10-15T00:03:19.497Z,45.48702,100,-61.140980000000006,100,11.7,100,14.5,100,12.4,100,0.0,100,3.5,100,0.3,100,0.9,100,3.1,100,0.5,100,0.6,100,2.9,100,2.9,100,3.1,100,995.6,100,30.2,100,284,100,37.4,100,5,100,0,1,0.8,1,995.6,1,995.6,100,995.6,100,30.2,100,29.2,100,284,100,279,100,37.4,100,36.0,100
2023-10-15T00:10:00Z,44489,9302001,WEST CHEDABUCTO BAY,0,45.48687,-61.14100000000001,18,2023-10-15T00:10:00.000Z,110,2023-10-15T00:13:23.858Z,45.48703,100,-61.140980000000006,100,12.4,100,15.1,100,12.4,100,0.0,100,3.5,100,,-1,,-1,,-1,,-1,,-1,,-1,,-1,,-1,995.7,100,33.8,100,291,100,41.8,100,5,100,0,1,1.0,1,995.7,1,995.7,100,995.6,100,33.8,100,32.8,100,291,100,286,100,41.8,100,41.0,100
2023-10-15T00:20:00Z,44489,9302001,WEST CHEDABUCTO BAY,0,45.48687,-61.14100000000001,18,2023-10-15T00:20:00.000Z,110,2023-10-15T00:23:32.138Z,45.48703,100,-61.140980000000006,100,11.8,100,14.5,100,12.4,100,0.0,100,3.5,100,,-1,,-1,,-1,,-1,,-1,,-1,,-1,,-1,995.6,100,34.9,100,291,100,42.5,100,5,100,0,1,1.0,1,995.6,1,995.6,100,995.6,100,34.9,100,33.8,100,291,100,286,100,42.5,100,40.7,100
2023-10-15T00:30:00Z,44489,9302001,WEST CHEDABUCTO BAY,0,45.48687,-61.14100000000001,18,2023-10-15T00:30:00.000Z,110,2023-10-15T00:33:34.935Z,45.48703,100,-61.140980000000006,100,11.7,100,14.5,100,12.4,100,0.0,100,3.5,100,,-1,,-1,,-1,,-1,,-1,,-1,,-1,,-1,995.6,100,36.4,100,289,100,43.6,100,5,100,0,1,0.8,1,995.6,1,995.6,100,995.5,100,36.4,100,34.9,100,289,100,284,100,43.6,100,41.4,100
2023-10-15T00:40:00Z,44489,9302001,WEST CHEDABUCTO BAY,0,45.48687,-61.14100000000001,18,2023-10-15T00:40:00.000Z,110,2023-10-15T00:43:43.330Z,45.48702,100,-61.140980000000006,100,11.7,100,14.5,100,12.3,100,0.0,100,3.5,100,,-1,,-1,,-1,,-1,,-1,,-1,,-1,,-1,995.6,100,33.8,100,286,100,41.8,100,5,100,1,1,0.8,1,995.6,1,995.6,100,995.6,100,33.8,100,32.8,100,286,100,281,100,41.8,100,40.7,100
2023-10-15T00:50:00Z,44489,9302001,WEST CHEDABUCTO BAY,0,45.48687,-61.14100000000001,18,2023-10-15T00:50:00.000Z,110,2023-10-15T00:53:34.731Z,45.48703,100,-61.14097,100,11.8,100,14.5,100,12.3,100,0.0,100,3.5,100,,-1,,-1,,-1,,-1,,-1,,-1,,-1,,-1,995.7,100,32.4,100,291,100,38.9,100,5,100,1,1,0.6,1,995.7,1,995.7,100,995.6,100,32.4,100,31.0,100,291,100,286,100,38.9,100,36.7,100
2023-10-15T01:00:00Z,44489,9302001,WEST CHEDABUCTO BAY,0,45.48687,-61.14100000000001,18,2023-10-15T01:00:00.000Z,108,2023-10-15T01:03:36.703Z,45.48703,100,-61.140969999999996,100,11.7,100,14.5,100,12.3,100,0.0,100,3.5,100,0.4,100,0.9,100,3.1,100,0.6,100,0.7,100,3.2,100,2.9,100,3.1,100,995.7,100,33.8,100,291,100,40.7,100,5,100,1,1,0.4,1,995.7,1,995.7,100,995.6,100,33.8,100,32.8,100,291,100,286,100,40.7,100,40.0,100
2023-10-15T01:10:00Z,44489,9302001,WEST CHEDABUCTO BAY,0,45.48687,-61.14100000000001,18,2023-10-15T01:10:00.000Z,110,2023-10-15T01:15:41.741Z,45.48703,100,-61.140980000000006,100,11.8,100,14.5,100,12.3,100,0.0,100,3.5,100,,-1,,-1,,-1,,-1,,-1,,-1,,-1,,-1,995.6,100,36.0,100,289,100,42.8,100,5,100,1,1,0.2,1,995.6,1,995.6,100,995.6,100,36.0,100,34.6,100,289,100,284,100,42.8,100,41.8,100
2023-10-15T01:20:00Z,44489,9302001,WEST CHEDABUCTO BAY,0,45.48687,-61.14100000000001,18,2023-10-15T01:20:00.000Z,110,2023-10-15T01:22:49.695Z,45.48703,100,-61.140980000000006,100,11.8,100,14.5,100,12.3,100,0.0,100,3.5,100,,-1,,-1,,-1,,-1,,-1,,-1,,-1,,-1,995.7,100,32.8,100,288,100,40.7,100,5,100,1,1,0.1,1,995.7,1,995.7,100,995.6,100,32.8,100,31.7,100,288,100,283,100,40.7,100,38.5,100
2023-10-15T01:30:00Z,44489,9302001,WEST CHEDABUCTO BAY,0,45.48687,-61.14100000000001,18,2023-10-15T01:30:00.000Z,110,2023-10-15T01:32:52.747Z,45.48703,100,-61.140980000000006,100,12.0,100,14.5,100,12.3,100,0.0,100,3.5,100,,-1,,-1,,-1,,-1,,-1,,-1,,-1,,-1,995.6,100,33.5,100,283,100,41.8,100,5,100,5,1,-0.1,1,995.6,1,995.6,100,995.6,100,33.5,100,32.0,100,283,100,278,100,41.8,100,40.3,100
2023-10-15T01:40:00Z,44489,9302001,WEST CHEDABUCTO BAY,0,45.48687,-61.14100000000001,18,2023-10-15T01:40:00.000Z,110,2023-10-15T01:42:54.067Z,45.48705,100,-61.140980000000006,100,12.1,100,14.5,100,12.3,100,0.0,100,3.5,100,,-1,,-1,,-1,,-1,,-1,,-1,,-1,,-1,995.6,100,33.8,100,284,100,43.6,100,5,100,6,1,-0.2,1,995.6,1,995.6,100,995.5,100,33.8,100,32.4,100,284,100,279,100,43.6,100,42.8,100
2023-10-15T01:50:00Z,44489,9302001,WEST CHEDABUCTO BAY,0,45.48687,-61.14100000000001,18,2023-10-15T01:50:00.000Z,110,2023-10-15T01:52:51.372Z,45.48702,100,-61.140980000000006,100,12.0,100,14.5,100,12.3,100,0.0,100,3.5,100,,-1,,-1,,-1,,-1,,-1,,-1,,-1,,-1,995.6,100,35.3,100,282,100,43.9,100,5,100,7,1,-0.3,1,995.6,1,995.6,100,995.5,100,35.3,100,33.8,100,282,100,277,100,43.9,100,41.8,100
2023-10-15T02:00:00Z,44489,9302001,WEST CHEDABUCTO BAY,0,45.48687,-61.14100000000001,18,2023-10-15T02:00:00.000Z,108,2023-10-15T02:02:53.754Z,45.48703,100,-61.14100000000001,100,11.9,100,14.5,100,12.3,100,0.0,100,3.5,100,0.4,100,1.0,100,3.3,100,0.7,100,0.8,100,3.3,100,3.0,100,3.4,100,995.5,100,39.2,100,283,100,46.8,100,5,100,7,1,-0.3,1,995.5,1,995.5,100,995.5,100,39.2,100,37.8,100,283,100,278,100,46.8,100,45.4,100
2023-10-15T02:10:00Z,44489,9302001,WEST CHEDABUCTO BAY,0,45.48687,-61.14100000000001,18,2023-10-15T02:10:00.000Z,110,2023-10-15T02:15:59.788Z,45.48703,100,-61.14097,100,11.9,100,14.5,100,12.3,100,0.0,100,3.5,100,,-1,,-1,,-1,,-1,,-1,,-1,,-1,,-1,995.6,100,37.4,100,282,100,44.3,100,5,100,6,1,-0.3,1,995.6,1,995.6,100,995.5,100,37.4,100,35.6,100,282,100,277,100,44.3,100,42.8,100
2023-10-15T02:20:00Z,44489,9302001,WEST CHEDABUCTO BAY,0,45.48687,-61.14100000000001,18,2023-10-15T02:20:00.000Z,110,2023-10-15T02:23:00.751Z,45.48708,100,-61.14100000000001,100,11.8,100,14.5,100,12.3,100,0.0,100,3.5,100,,-1,,-1,,-1,,-1,,-1,,-1,,-1,,-1,995.6,100,37.1,100,282,100,45.4,100,5,100,6,1,-0.2,1,995.6,1,995.6,100,995.6,100,37.1,100,35.6,100,282,100,277,100,45.4,100,43.6,100
2023-10-15T02:30:00Z,44489,9302001,WEST CHEDABUCTO BAY,0,45.48687,-61.14100000000001,18,2023-10-15T02:30:00.000Z,110,2023-10-15T02:32:57.750Z,45.4871,100,-61.140980000000006,100,11.8,100,14.5,100,12.3,100,0.0,100,3.5,100,,-1,,-1,,-1,,-1,,-1,,-1,,-1,,-1,995.6,100,34.9,100,280,100,41.4,100,5,100,5,1,-0.1,1,995.6,1,995.6,100,995.6,100,34.9,100,33.5,100,280,100,275,100,41.4,100,40.0,100
2023-10-15T02:40:00Z,44489,9302001,WEST CHEDABUCTO BAY,0,45.48687,-61.14100000000001,18,2023-10-15T02:40:00.000Z,110,2023-10-15T02:43:03.462Z,45.487120000000004,100,-61.14100000000001,100,11.6,100,14.5,100,12.3,100,0.0,100,3.5,100,,-1,,-1,,-1,,-1,,-1,,-1,,-1,,-1,995.6,100,35.6,100,283,100,43.2,100,5,100,4,1,0.0,1,995.6,1,995.6,100,995.6,100,35.6,100,34.2,100,283,100,278,100,43.2,100,41.4,100
2023-10-15T02:50:00Z,44489,9302001,WEST CHEDABUCTO BAY,0,45.48687,-61.14100000000001,18,2023-10-15T02:50:00.000Z,110,2023-10-15T02:53:12.672Z,45.4871,100,-61.14100000000001,100,11.7,100,14.5,100,12.3,100,0.0,100,3.5,100,,-1,,-1,,-1,,-1,,-1,,-1,,-1,,-1,995.6,100,34.2,100,282,100,39.6,100,5,100,6,1,-0.1,1,995.6,1,995.6,100,995.5,100,34.2,100,32.8,100,282,100,277,100,39.6,100,39.2,100
2023-10-15T03:00:00Z,44489,9302001,WEST CHEDABUCTO BAY,0,45.48687,-61.14100000000001,18,2023-10-15T03:00:00.000Z,108,2023-10-15T03:03:09.548Z,45.4871,100,-61.14103000000001,100,11.6,100,14.5,100,12.3,100,0.0,100,3.5,100,0.4,100,1.0,100,3.2,100,0.7,100,0.8,100,3.1,100,3.0,100,3.4,100,995.6,100,36.0,100,283,100,44.6,100,5,100,4,1,-0.1,1,995.6,1,995.6,100,995.5,100,36.0,100,34.9,100,283,100,279,100,44.6,100,44.3,100
2023-10-15T03:10:00Z,44489,9302001,WEST CHEDABUCTO BAY,0,45.48687,-61.14100000000001,18,2023-10-15T03:10:00.000Z,110,2023-10-15T03:16:18.469Z,45.48703,100,-61.14095,100,11.5,100,14.6,100,12.3,100,0.0,100,3.5,100,,-1,,-1,,-1,,-1,,-1,,-1,,-1,,-1,995.5,100,37.1,100,286,100,44.6,100,5,100,6,1,-0.1,1,995.5,1,995.5,100,995.5,100,37.1,100,35.6,100,286,100,281,100,44.6,100,42.1,100
2023-10-15T03:20:00Z,44489,9302001,WEST CHEDABUCTO BAY,0,45.48687,-61.14100000000001,18,2023-10-15T03:20:00.000Z,110,2023-10-15T03:23:12.719Z,45.48702,100,-61.140919999999994,100,11.5,100,14.6,100,12.3,100,0.0,100,3.5,100,,-1,,-1,,-1,,-1,,-1,,-1,,-1,,-1,995.6,100,37.8,100,284,100,45.0,100,5,100,0,1,0.0,1,995.6,1,995.6,100,995.5,100,37.8,100,36.4,100,284,100,279,100,45.0,100,43.9,100
2023-10-15T03:30:00Z,44489,9302001,WEST CHEDABUCTO BAY,0,45.48687,-61.14100000000001,18,2023-10-15T03:30:00.000Z,110,2023-10-15T03:33:15.348Z,45.48705,100,-61.14095,100,11.4,100,14.6,100,12.3,100,0.0,100,3.5,100,,-1,,-1,,-1,,-1,,-1,,-1,,-1,,-1,995.5,100,38.9,100,283,100,46.8,100,5,100,0,1,0.0,1,995.5,1,995.5,100,995.5,100,38.9,100,37.1,100,283,100,279,100,46.8,100,45.7,100
2023-10-15T03:40:00Z,44489,9302001,WEST CHEDABUCTO BAY,0,45.48687,-61.14100000000001,18,2023-10-15T03:40:00.000Z,110,2023-10-15T03:43:14.507Z,45.48705,100,-61.140930000000004,100,11.5,100,14.6,100,12.3,100,0.0,100,3.5,100,,-1,,-1,,-1,,-1,,-1,,-1,,-1,,-1,995.6,100,37.8,100,282,100,46.4,100,5,100,4,1,0.0,1,995.6,1,995.6,100,995.5,100,37.8,100,36.4,100,282,100,278,100,46.4,100,44.3,100
2023-10-15T03:50:00Z,44489,9302001,WEST CHEDABUCTO BAY,0,45.48687,-61.14100000000001,18,2023-10-15T03:50:00.000Z,110,2023-10-15T03:53:14.102Z,45.48703,100,-61.14095,100,11.5,100,14.6,100,12.3,100,0.0,100,3.5,100,,-1,,-1,,-1,,-1,,-1,,-1,,-1,,-1,995.6,100,39.2,100,283,100,48.2,100,5,100,6,1,-0.1,1,995.6,1,995.6,100,995.6,100,39.2,100,37.4,100,283,100,278,100,48.2,100,46.8,100
2023-10-15T04:00:00Z,44489,9302001,WEST CHEDABUCTO BAY,0,45.48687,-61.14100000000001,18,2023-10-15T04:00:00.000Z,108,2023-10-15T04:03:18.808Z,45.48702,100,-61.14095,100,11.5,100,14.6,100,12.3,100,0.0,100,3.5,100,0.5,100,1.2,100,3.3,100,0.7,100,0.9,100,3.4,100,3.0,100,3.5,100,995.6,100,37.8,100,283,100,44.6,100,5,100,5,1,-0.1,1,995.6,1,995.6,100,995.6,100,37.8,100,36.4,100,283,100,279,100,44.6,100,42.8,100
2023-10-15T04:10:00Z,44489,9302001,WEST CHEDABUCTO BAY,0,45.48687,-61.14100000000001,18,2023-10-15T04:10:00.000Z,110,2023-10-15T04:16:28.752Z,45.48703,100,-61.14093,100,11.6,100,14.6,100,12.3,100,0.0,100,3.5,100,,-1,,-1,,-1,,-1,,-1,,-1,,-1,,-1,995.6,100,38.2,100,283,100,45.0,100,5,100,5,1,0.0,1,995.6,1,995.6,100,995.6,100,38.2,100,36.7,100,283,100,278,100,45.0,100,43.2,100
2023-10-15T04:20:00Z,44489,9302001,WEST CHEDABUCTO BAY,0,45.48687,-61.14100000000001,18,2023-10-15T04:20:00.000Z,110,2023-10-15T04:23:30.213Z,45.48705,100,-61.140969999999996,100,11.6,100,14.6,100,12.3,100,0.0,100,3.5,100,,-1,,-1,,-1,,-1,,-1,,-1,,-1,,-1,995.6,100,36.7,100,284,100,43.6,100,5,100,6,1,-0.1,1,995.6,1,995.6,100,995.5,100,36.7,100,34.9,100,284,100,279,100,43.6,100,42.1,100
2023-10-15T04:30:00Z,44489,9302001,WEST CHEDABUCTO BAY,0,45.48687,-61.14100000000001,18,2023-10-15T04:30:00.000Z,110,2023-10-15T04:33:30.443Z,45.48705,100,-61.14095,100,11.7,100,14.6,100,12.3,100,0.0,100,3.5,100,,-1,,-1,,-1,,-1,,-1,,-1,,-1,,-1,995.6,100,37.1,100,283,100,45.4,100,5,100,4,1,0.0,1,995.6,1,995.6,100,995.5,100,37.1,100,35.6,100,283,100,278,100,45.4,100,43.9,100
2023-10-15T04:40:00Z,44489,9302001,WEST CHEDABUCTO BAY,0,45.48687,-61.14100000000001,18,2023-10-15T04:40:00.000Z,110,2023-10-15T04:43:35.198Z,45.48705,100,-61.14095,100,11.6,100,14.6,100,12.3,100,0.0,100,3.5,100,,-1,,-1,,-1,,-1,,-1,,-1,,-1,,-1,995.7,100,34.9,100,287,100,41.4,100,5,100,3,1,0.2,1,995.7,1,995.7,100,995.7,100,34.9,100,33.8,100,287,100,282,100,41.4,100,40.3,100
2023-10-15T04:50:00Z,44489,9302001,WEST CHEDABUCTO BAY,0,45.48687,-61.14100000000001,18,2023-10-15T04:50:00.000Z,110,2023-10-15T04:53:31.847Z,45.48703,100,-61.14095,100,11.7,100,14.6,100,12.3,100,0.0,100,3.5,100,,-1,,-1,,-1,,-1,,-1,,-1,,-1,,-1,995.7,100,34.2,100,288,100,41.4,100,5,100,3,1,0.1,1,995.7,1,995.7,100,995.6,100,34.2,100,33.1,100,288,100,283,100,41.4,100,40.3,100
2023-10-15T05:00:00Z,44489,9302001,WEST CHEDABUCTO BAY,0,45.48687,-61.14100000000001,18,2023-10-15T05:00:00.000Z,108,2023-10-15T05:03:33.251Z,45.48705,100,-61.140980000000006,100,11.9,100,14.6,100,12.3,100,0.0,100,3.5,100,0.4,100,1.0,100,3.2,100,0.6,100,0.8,100,3.1,100,2.9,100,3.2,100,995.6,100,32.0,100,288,100,38.5,100,5,100,1,1,0.1,1,995.6,1,995.6,100,995.6,100,32.0,100,30.6,100,288,100,283,100,38.5,100,37.8,100
2023-10-15T05:10:00Z,44489,9302001,WEST CHEDABUCTO BAY,0,45.48687,-61.14100000000001,18,2023-10-15T05:10:00.000Z,110,2023-10-15T05:15:45.378Z,45.48703,100,-61.14097,100,11.9,100,14.6,100,12.3,100,0.0,100,3.5,100,,-1,,-1,,-1,,-1,,-1,,-1,,-1,,-1,995.7,100,31.7,100,290,100,40.0,100,5,100,3,1,0.1,1,995.7,1,995.7,100,995.6,100,31.7,100,30.6,100,290,100,285,100,40.0,100,38.2,100
2023-10-15T05:20:00Z,44489,9302001,WEST CHEDABUCTO BAY,0,45.48687,-61.14100000000001,18,2023-10-15T05:20:00.000Z,110,2023-10-15T05:22:46.158Z,45.48705,100,-61.140969999999996,100,11.9,100,14.7,100,12.3,100,0.0,100,3.5,100,,-1,,-1,,-1,,-1,,-1,,-1,,-1,,-1,995.7,100,29.5,100,290,100,35.6,100,5,100,3,1,0.1,1,995.7,1,995.7,100,995.7,100,29.5,100,28.4,100,290,100,285,100,35.6,100,34.6,100
2023-10-15T05:30:00Z,44489,9302001,WEST CHEDABUCTO BAY,0,45.48687,-61.14100000000001,18,2023-10-15T05:30:00.000Z,110,2023-10-15T05:32:50.440Z,45.48703,100,-61.14097,100,11.9,100,14.7,100,12.3,100,0.0,100,3.5,100,,-1,,-1,,-1,,-1,,-1,,-1,,-1,,-1,995.7,100,32.8,100,291,100,38.5,100,5,100,5,1,0.0,1,995.7,1,995.7,100,995.6,100,32.8,100,31.7,100,291,100,286,100,38.5,100,37.4,100
2023-10-15T05:40:00Z,44489,9302001,WEST CHEDABUCTO BAY,0,45.48687,-61.14100000000001,18,2023-10-15T05:40:00.000Z,110,2023-10-15T05:42:50.478Z,45.48708,100,-61.14100000000001,100,11.9,100,14.7,100,12.3,100,0.0,100,3.5,100,,-1,,-1,,-1,,-1,,-1,,-1,,-1,,-1,995.8,100,34.2,100,291,100,42.1,100,5,100,3,1,0.2,1,995.8,1,995.8,100,995.7,100,34.2,100,33.1,100,291,100,286,100,42.1,100,40.3,100
2023-10-15T05:50:00Z,44489,9302001,WEST CHEDABUCTO BAY,0,45.48687,-61.14100000000001,18,2023-10-15T05:50:00.000Z,110,2023-10-15T05:52:49.518Z,45.48705,100,-61.14097,100,11.8,100,14.7,100,12.3,100,0.0,100,3.5,100,,-1,,-1,,-1,,-1,,-1,,-1,,-1,,-1,995.8,100,34.6,100,292,100,42.1,100,5,100,3,1,0.3,1,995.8,1,995.8,100,995.8,100,34.6,100,33.1,100,292,100,287,100,42.1,100,40.3,100
2023-10-15T06:00:00Z,44489,9302001,WEST CHEDABUCTO BAY,0,45.48687,-61.14100000000001,18,2023-10-15T06:00:00.000Z,108,2023-10-15T06:02:53.115Z,45.48707,100,-61.140930000000004,100,11.8,100,14.7,100,12.3,100,0.0,100,3.5,100,0.4,100,1.0,100,3.1,100,0.6,100,0.8,100,3.2,100,2.9,100,3.4,100,995.8,100,33.8,100,283,100,40.3,100,5,100,3,1,0.3,1,995.8,1,995.8,100,995.8,100,33.8,100,32.4,100,283,100,278,100,40.3,100,38.9,100
2023-10-15T06:10:00Z,44489,9302001,WEST CHEDABUCTO BAY,0,45.48687,-61.14100000000001,18,2023-10-15T06:10:00.000Z,110,2023-10-15T06:16:06.290Z,45.48705,100,-61.14095,100,11.8,100,14.7,100,12.3,100,0.0,100,3.5,100,,-1,,-1,,-1,,-1,,-1,,-1,,-1,,-1,995.8,100,37.1,100,280,100,46.4,100,5,100,2,1,0.3,1,995.8,1,995.8,100,995.7,100,37.1,100,35.6,100,280,100,275,100,46.4,100,44.6,100
2023-10-15T06:20:00Z,44489,9302001,WEST CHEDABUCTO BAY,0,45.48687,-61.14100000000001,18,2023-10-15T06:20:00.000Z,110,2023-10-15T06:23:08.736Z,45.48708,100,-61.140969999999996,100,11.7,100,14.6,100,12.3,100,0.0,100,3.5,100,,-1,,-1,,-1,,-1,,-1,,-1,,-1,,-1,995.9,100,37.4,100,280,100,45.0,100,5,100,3,1,0.3,1,995.9,1,995.9,100,995.9,100,37.4,100,36.0,100,280,100,275,100,45.0,100,43.2,100
2023-10-15T06:30:00Z,44489,9302001,WEST CHEDABUCTO BAY,0,45.48687,-61.14100000000001,18,2023-10-15T06:30:00.000Z,110,2023-10-15T06:33:06.655Z,45.48703,100,-61.14095,100,11.7,100,14.6,100,12.3,100,0.0,100,3.5,100,,-1,,-1,,-1,,-1,,-1,,-1,,-1,,-1,996.1,100,36.7,100,282,100,45.4,100,5,100,3,1,0.6,1,996.1,1,996.1,100,996.0,100,36.7,100,35.3,100,282,100,277,100,45.4,100,43.9,100
2023-10-15T06:40:00Z,44489,9302001,WEST CHEDABUCTO BAY,0,45.48687,-61.14100000000001,18,2023-10-15T06:40:00.000Z,110,2023-10-15T06:43:07.709Z,45.48705,100,-61.14095,100,11.6,100,14.6,100,12.3,100,0.0,100,3.5,100,,-1,,-1,,-1,,-1,,-1,,-1,,-1,,-1,996.1,100,38.9,100,284,100,47.2,100,5,100,3,1,0.5,1,996.1,1,996.1,100,996.1,100,38.9,100,37.1,100,284,100,279,100,47.2,100,44.6,100
2023-10-15T06:50:00Z,44489,9302001,WEST CHEDABUCTO BAY,0,45.48687,-61.14100000000001,18,2023-10-15T06:50:00.000Z,110,2023-10-15T06:53:04.498Z,45.48705,100,-61.14095,100,11.5,100,14.6,100,12.3,100,0.0,100,3.5,100,,-1,,-1,,-1,,-1,,-1,,-1,,-1,,-1,996.2,100,36.7,100,282,100,43.6,100,5,100,3,1,0.6,1,996.2,1,996.2,100,996.1,100,36.7,100,35.3,100,282,100,277,100,43.6,100,42.8,100
2023-10-15T07:00:00Z,44489,9302001,WEST CHEDABUCTO BAY,0,45.48687,-61.14100000000001,18,2023-10-15T07:00:00.000Z,108,2023-10-15T07:03:08.752Z,45.48707,100,-61.14095,100,11.4,100,14.6,100,12.3,100,0.0,100,3.5,100,0.4,100,1.0,100,3.1,100,0.6,100,0.8,100,3.1,100,2.9,100,3.3,100,996.2,100,34.2,100,282,100,40.3,100,5,100,3,1,0.6,1,996.2,1,996.2,100,996.2,100,34.2,100,32.8,100,282,100,277,100,40.3,100,39.2,100
2023-10-15T07:10:00Z,44489,9302001,WEST CHEDABUCTO BAY,0,45.48687,-61.14100000000001,18,2023-10-15T07:10:00.000Z,110,2023-10-15T07:16:18.434Z,45.48705,100,-61.14097,100,11.5,100,14.6,100,12.3,100,0.0,100,3.5,100,,-1,,-1,,-1,,-1,,-1,,-1,,-1,,-1,996.3,100,34.2,100,284,100,40.3,100,5,100,3,1,0.7,1,996.3,1,996.3,100,996.3,100,34.2,100,32.8,100,284,100,279,100,40.3,100,39.6,100
2023-10-15T07:20:00Z,44489,9302001,WEST CHEDABUCTO BAY,0,45.48687,-61.14100000000001,18,2023-10-15T07:20:00.000Z,110,2023-10-15T07:23:23.729Z,45.48705,100,-61.14095,100,11.5,100,14.6,100,12.3,100,0.0,100,3.5,100,,-1,,-1,,-1,,-1,,-1,,-1,,-1,,-1,996.3,100,33.1,100,288,100,38.5,100,5,100,3,1,0.7,1,996.3,1,996.3,100,996.3,100,33.1,100,31.7,100,288,100,283,100,38.5,100,36.7,100
2023-10-15T07:30:00Z,44489,9302001,WEST CHEDABUCTO BAY,0,45.48687,-61.14100000000001,18,2023-10-15T07:30:00.000Z,110,2023-10-15T07:33:20.339Z,45.48707,100,-61.14095,100,11.6,100,14.6,100,12.3,100,0.0,100,3.5,100,,-1,,-1,,-1,,-1,,-1,,-1,,-1,,-1,996.3,100,33.1,100,284,100,43.2,100,5,100,3,1,0.7,1,996.3,1,996.3,100,996.2,100,33.1,100,32.0,100,284,100,279,100,43.2,100,42.5,100
2023-10-15T07:40:00Z,44489,9302001,WEST CHEDABUCTO BAY,0,45.48687,-61.14100000000001,18,2023-10-15T07:40:00.000Z,110,2023-10-15T07:43:21.665Z,45.48707,100,-61.14095,100,11.4,100,14.6,100,12.3,100,0.0,100,3.5,100,,-1,,-1,,-1,,-1,,-1,,-1,,-1,,-1,996.1,100,33.5,100,279,100,42.5,100,5,100,1,1,0.4,1,996.1,1,996.1,100,996.1,100,33.5,100,32.4,100,279,100,274,100,42.5,100,41.4,100
2023-10-15T07:50:00Z,44489,9302001,WEST CHEDABUCTO BAY,0,45.48687,-61.14100000000001,18,2023-10-15T07:50:00.000Z,110,2023-10-15T07:53:28.411Z,45.48707,100,-61.14100000000001,100,11.4,100,14.6,100,12.3,100,0.0,100,3.5,100,,-1,,-1,,-1,,-1,,-1,,-1,,-1,,-1,996.1,100,31.3,100,286,100,37.1,100,5,100,0,1,0.4,1,996.1,1,996.1,100,996.1,100,31.3,100,30.2,100,286,100,281,100,37.1,100,36.0,100
2023-10-15T08:00:00Z,44489,9302001,WEST CHEDABUCTO BAY,0,45.48687,-61.14100000000001,18,2023-10-15T08:00:00.000Z,108,2023-10-15T08:03:21.781Z,45.48707,100,-61.14100000000001,100,11.4,100,14.6,100,12.3,100,0.0,100,3.5,100,0.4,100,1.0,100,3.1,100,0.6,100,0.7,100,3.0,100,2.9,100,3.4,100,996.2,100,33.1,100,285,100,40.7,100,5,100,0,1,0.5,1,996.2,1,996.2,100,996.1,100,33.1,100,31.7,100,285,100,280,100,40.7,100,38.9,100
2023-10-15T08:10:00Z,44489,9302001,WEST CHEDABUCTO BAY,0,45.48687,-61.14100000000001,18,2023-10-15T08:10:00.000Z,110,2023-10-15T08:16:34.192Z,45.48707,100,-61.14097,100,11.2,100,14.6,100,12.3,100,0.0,100,3.5,100,,-1,,-1,,-1,,-1,,-1,,-1,,-1,,-1,996.0,100,32.8,100,291,100,39.2,100,5,100,0,1,0.3,1,996.0,1,996.0,100,996.0,100,32.8,100,31.7,100,291,100,286,100,39.2,100,37.4,100
2023-10-15T08:20:00Z,44489,9302001,WEST CHEDABUCTO BAY,0,45.48687,-61.14100000000001,18,2023-10-15T08:20:00.000Z,110,2023-10-15T08:23:35.180Z,45.48705,100,-61.140980000000006,100,11.0,100,14.6,100,12.3,100,0.0,100,3.5,100,,-1,,-1,,-1,,-1,,-1,,-1,,-1,,-1,996.3,100,30.6,100,288,100,37.4,100,5,100,0,1,0.5,1,996.3,1,996.3,100,996.2,100,30.6,100,29.5,100,288,100,283,100,37.4,100,36.4,100
2023-10-15T08:30:00Z,44489,9302001,WEST CHEDABUCTO BAY,0,45.48687,-61.14100000000001,18,2023-10-15T08:30:00.000Z,110,2023-10-15T08:33:43.121Z,45.48707,100,-61.140980000000006,100,11.0,100,14.6,100,12.3,100,0.0,100,3.5,100,,-1,,-1,,-1,,-1,,-1,,-1,,-1,,-1,996.4,100,28.4,100,288,100,38.5,100,5,100,1,1,0.7,1,996.4,1,996.4,100,996.3,100,28.4,100,27.7,100,288,100,284,100,38.5,100,38.5,100
2023-10-15T08:40:00Z,44489,9302001,WEST CHEDABUCTO BAY,0,45.48687,-61.14100000000001,18,2023-10-15T08:40:00.000Z,110,2023-10-15T08:43:42.325Z,45.48707,100,-61.140969999999996,100,11.2,100,14.6,100,12.3,100,0.0,100,3.5,100,,-1,,-1,,-1,,-1,,-1,,-1,,-1,,-1,996.2,100,31.7,100,288,100,41.0,100,5,100,1,1,0.4,1,996.2,1,996.2,100,996.1,100,31.7,100,30.6,100,288,100,283,100,41.0,100,39.2,100
2023-10-15T08:50:00Z,44489,9302001,WEST CHEDABUCTO BAY,0,45.48687,-61.14100000000001,18,2023-10-15T08:50:00.000Z,110,2023-10-15T08:54:41.740Z,45.48708,100,-61.14097,100,11.2,100,14.6,100,12.3,100,0.0,100,3.5,100,,-1,,-1,,-1,,-1,,-1,,-1,,-1,,-1,996.2,100,33.5,100,289,100,39.2,100,5,100,1,1,0.4,1,996.2,1,996.2,100,996.1,100,33.5,100,32.4,100,289,100,284,100,39.2,100,38.5,100
2023-10-15T09:00:00Z,44489,9302001,WEST CHEDABUCTO BAY,0,45.48687,-61.14100000000001,18,2023-10-15T09:00:00.000Z,108,2023-10-15T09:02:40.414Z,45.48707,100,-61.140980000000006,100,11.2,100,14.6,100,12.3,100,0.0,100,3.5,100,0.4,100,1.0,100,3.0,100,0.6,100,0.7,100,3.0,100,2.8,100,3.4,100,996.4,100,32.8,100,287,100,38.2,100,5,100,1,1,0.6,1,996.4,1,996.4,100,996.3,100,32.8,100,31.7,100,287,100,282,100,38.2,100,38.2,100
2023-10-15T09:10:00Z,44489,9302001,WEST CHEDABUCTO BAY,0,45.48687,-61.14100000000001,18,2023-10-15T09:10:00.000Z,110,2023-10-15T09:15:52.595Z,45.48707,100,-61.14100000000001,100,11.3,100,14.6,100,12.3,100,0.0,100,3.5,100,,-1,,-1,,-1,,-1,,-1,,-1,,-1,,-1,996.4,100,31.3,100,284,100,36.7,100,5,100,1,1,0.6,1,996.4,1,996.4,100,996.3,100,31.3,100,30.2,100,284,100,279,100,36.7,100,35.6,100
2023-10-15T09:20:00Z,44489,9302001,WEST CHEDABUCTO BAY,0,45.48687,-61.14100000000001,18,2023-10-15T09:20:00.000Z,110,2023-10-15T09:22:59.356Z,45.48707,100,-61.140980000000006,100,11.3,100,14.6,100,12.3,100,0.0,100,3.5,100,,-1,,-1,,-1,,-1,,-1,,-1,,-1,,-1,996.3,100,32.8,100,284,100,38.5,100,5,100,1,1,0.3,1,996.3,1,996.3,100,996.2,100,32.8,100,31.7,100,284,100,280,100,38.5,100,37.4,100